Tracking 19795 objects as of 20-Jul-2019
HD Live streaming from Space Station
objects crossing your sky now

TDRS 10

Track TDRS 10 now!
TDRS 10 is classified as:


NORAD ID: 27566
Int'l Code: 2002-055A
Perigee: 35,767.8 km
Apogee: 35,820.0 km
Inclination: 6.3 °
Period: 1,436.1 minutes
Semi major axis: 42164 km
RCS: 5.0118 m2 (large)
Launch date: December 5, 2002
Source: United States (US)
Launch site: AIR FORCE EASTERN TEST RANGE (AFETR)

Tracking and communications with space shuttle, other missions.
aabbcc
Your satellite tracking list
Your tracking list is empty




NASA's NSSDC Master Catalog

Two Line Element Set (TLE):
1 27566U 02055A   19200.79224814  .00000083  00000-0  00000+0 0  9997
2 27566   6.3317  55.1196 0006188 310.4902  45.6173  1.00271259 60916
Source of the keplerian elements: AFSPC